Meteo Giornale » Osservazioni meteo Messico » Mexico City-Licenci

ore: 15:43 - Osservazioni Meteo Mexico City-Licenci
Lat. 19° 26' N Lon. 99° 6' W Alt. 2238 metri s.l.m.

coperto America/Mexico_City

24 °C

Coperto

Temp. 24 Ore

14 °C

24 °C

Ovest

20.3 Km/h

Dew point 6 °C

Umidità 31 %

Visibilità  8 Km

Il sole sorge alle ore 07:09

Il sole tramonta alle ore 19:58

Data e Ora Cielo e Fenomeni T °C DP °C Um. % Pres. hPa Vis. km Vento km/h
Oggi h: 15:43 coperto Coperto 24 6 31 1025 8 O 20.3
Oggi h: 14:49 molto_nuvoloso Molto Nuvoloso 24 6 31 1026 8 O 9.3
Oggi h: 13:44 nuvoloso Nuvoloso 24 7 33 1027 8 O/NO 7.4
Oggi h: 12:53 poco_nuvoloso Poco Nuvoloso 23 8 38 1028 8 E/NE 11.1
Oggi h: 11:50 sereno Sereno 22 9 43 1029 6 N 0
Oggi h: 11:49 sereno Sereno 22 9 43 1029 6 N 0
Oggi h: 10:54 sereno Sereno 20 9 49 1030 8 S/SE 11.1
Oggi h: 10:52 sereno Sereno 20 9 49 1029 8 SE 11.1
Oggi h: 10:12 sereno Sereno 18 10 59 1030 6 N 5.5
Oggi h: 09:51 poco_nuvoloso Poco Nuvoloso 16 10 67 1030 6 E 9.3
Oggi h: 09:25 molto_nuvoloso Molto Nuvoloso 16 10 67 1030 6 E 7.4
Oggi h: 08:47 molto_nuvoloso Molto Nuvoloso 14 10 76 1030 6 O/NO 7.4
Oggi h: 07:47 poco_nuvoloso Poco Nuvoloso 14 10 76 1029 8 S/SE 7.4
Oggi h: 06:42 poco_nuvoloso Poco Nuvoloso 14 10 76 1028 11 N 9.3
Oggi h: 05:46 sereno Sereno 14 10 76 1027 13 NE 7.4
Oggi h: 04:45 sereno Sereno 14 9 71 1027 10 NO 7.4
Oggi h: 03:47 poco_nuvoloso Poco Nuvoloso 14 11 82 1027 10 N 0
Oggi h: 02:40 nuvoloso Nuvoloso 15 10 72 1028 13 N 5.5
Oggi h: 01:40 molto_nuvoloso Molto Nuvoloso 15 11 76 1029 11 O/SO 9.3
Oggi h: 00:47 molto_nuvoloso Molto Nuvoloso 15 11 76 1030 11 O 7.4
Ieri h: 23:46 coperto_pioggia Pioggia Debole 15 10 72 1030 10 O/NO 13
Ieri h: 22:46 coperto_pioggia Pioggia 16 9 63 1030 10 N/NO 18.5
Ieri h: 22:36 coperto_pioggia Pioggia 17 8 55 1029 10 N/NE 13
Ieri h: 21:51 coperto Coperto 18 9 55 1028 11 N 29.6
Ieri h: 21:47 coperto Coperto 19 8 48 1027 11 N 25.9
Ieri h: 20:43 coperto Coperto 21 7 40 1027 10 N 9.3
Ieri h: 19:49 coperto_pioggia Pioggia nelle Vicinanze 22 8 40 1025 10 S 7.4
Ieri h: 18:44 coperto Coperto 23 6 33 1025 11 S/SE 7.4
Ieri h: 17:52 coperto Coperto 23 5 31 1024 11 NO 11.1
Ieri h: 16:50 coperto Coperto 23 7 35 1024 11 NO 13